Regional Weather Roundup
Issued by NWS

Home | Current Version | Previous Version | Text Only | Print | Product List | Glossary Off
Versions: 1 2 3 4 5 6 7 8 9 10 11 12 13 14 15 16 17 18 19 20 21 22 23 24 25 26 27 28 29 30 31 32 33 34 35 36 37 38 39 40 41 42 43 44 45 46 47 48

000
ASUS45 KSLC 010410
RWRUT

UTAH REGIONAL WEATHER ROUNDUP
NATIONAL WEATHER SERVICE SALT LAKE CITY UT
1000 PM MDT TUE MAR 31 2015

UTZ001>011-023>025-010500-

NORTHERN UTAH

CITY           SKY/WX    TMP DP  RH WIND       PRES   REMARKS
BRIGHAM CITY   MOCLDY    63  28  26 SE7       29.74R
HILL AFB       MOCLDY    63  32  31 W9        29.80R
LOGAN          CLEAR     62  30  29 SE10      29.74F
OGDEN          CLOUDY    64  29  26 VRB6      29.79R
PROVO AIRPORT  CLOUDY    66  28  24 SW20G43   29.80S
SALT LAKE CITY CLOUDY    65  31  28 NW12      29.77R
VERNAL         MOCLDY    62  20  19 SW7       29.78F
WENDOVER       PTCLDY    61  10  13 N20G26    29.81R
HEBER CITY     CLOUDY    61  23  23 S9G22     29.84R
WEST JORDAN    CLOUDY    63  36  36 CALM      29.81R

$$

UTZ012>022-026-027-010500-

SOUTHERN/CENTRAL UTAH

CITY           SKY/WX    TMP DP  RH WIND       PRES   REMARKS
BLANDING       CLOUDY    53  26  35 NW6       30.00S
BRYCE CANYON   CLEAR     32  23  69 SW6       30.04S WCI  26
CEDAR CITY     PTCLDY    59  20  22 S7        29.92S
DELTA          PTCLDY    64  17  16 S16       29.81R
HANKSVILLE     CLEAR     68  21  17 SW13      29.84R
MILFORD        CLEAR     56  21  25 S15       29.86S
MOAB/CYNLANDS  CLEAR     63  17  17 SW14      29.79S
PRICE          PTCLDY    58  16  19 CALM      29.85S
ST GEORGE      CLOUDY    73  25  16 S12       29.81S
KANAB          CLEAR     59  28  31 SW8       29.96R

$$

REGIONAL REPORTS     COLORADO/ARIZONA

CITY           SKY/WX    TMP DP  RH WIND       PRES   REMARKS
CRAIG, CO      CLOUDY    53  23  31 CALM      29.87F
GRAND JUNCTION CLOUDY    63  17  17 S6        29.83S
RIFLE          CLOUDY    59  24  26 CALM      29.87S
MONTROSE       CLOUDY    56  18  22 SE12      29.94S
CORTEZ         MOCLDY    51  23  33 N5        29.96S
PAGE, AZ       MOCLDY    72  21  14 SW8       29.88R
GRAND CANYON   MOCLDY    51  25  36 SW7       30.06S
KINGMAN        PTCLDY    72  32  23 S14       29.89S
FLAGSTAFF      MOCLDY    54  24  31 SW6       30.10S

$$

REGIONAL REPORTS    NEVADA/IDAHO/WYOMING

CITY           SKY/WX    TMP DP  RH WIND       PRES   REMARKS
LAS VEGAS, NV  PTCLDY    78  19  11 S13       29.74R
ELY            CLOUDY    55  -3   9 NW13      29.93R
ELKO           CLEAR     46  26  45 VRB7      30.00R
POCATELLO, ID  PTCLDY    46  32  58 SW23      29.90R
BURLEY         CLOUDY    45  28  51 SW20G35   29.95R
EVANSTON, WY   MOCLDY    49  24  37 W10       29.89R
ROCK SPRINGS   CLOUDY    53  15  22 SW10      29.83
KEMMERER       PTCLDY    46  23  39 W13       29.87F

$$



USA.gov is the U.S. government's official web portal to all federal, state and local government web resources and services.